GW3346 Weather Reports


time (UTC)temp
C
wind
direction
speed
KPH
gust
KPH
rain 1hr
cm
rain 24hr
cm
rain mn
cm
humidity
%
barometer
mb
20260509013230 12 225 9.7 11.3 0.00 0.10 0.10 98 1010.3
20260509012727 12 225 11.3 14.5 0.00 0.10 0.10 98 1010.3
20260509012223 12 225 9.7 14.5 0.00 0.10 0.10 98 1010.3
20260509011721 12 226 9.7 12.9 0.00 0.10 0.10 98 1010.6
20260509011219 12 226 11.3 14.5 0.00 0.10 0.10 98 1010.3
20260509010716 12 226 8.0 11.3 0.00 0.10 0.10 98 1010.3
20260509010207 12 226 9.7 12.9 0.00 0.10 0.10 98 1010.3
20260509005705 12 225 9.7 12.9 0.00 0.10 0.10 97 1010.3
20260509005202 12 232 9.7 14.5 0.00 0.10 0.10 97 1010.3
20260509004701 12 234 9.7 14.5 0.00 0.10 0.10 96 1010.3
20260509004159 12 230 16.1 22.5 0.00 0.10 0.10 96 1010.3
20260509003658 12 225 14.5 17.7 0.00 0.10 0.10 96 1010.3
20260509003155 12 221 17.7 20.9 0.00 0.10 0.10 94 1010.3
20260509002652 12 217 16.1 19.3 0.00 0.10 0.10 94 1010.3
20260509002149 12 210 12.9 16.1 0.00 0.10 0.10 96 1010.3
20260509001647 12 201 12.9 17.7 0.00 0.10 0.10 99 1010.3
20260509001142 12 191 14.5 16.1 0.00 0.08 0.08 100 1010.3
20260509000641 12 178 14.5 16.1 0.00 0.08 0.08 100 1010.3
20260509000137 12 178 11.3 12.9 0.00 0.08 0.08 100 1010.3
20260508235635 12 178 9.7 12.9 0.00 0.08 0.08 100 1010.3
20260508235131 12 178 9.7 12.9 0.00 0.08 0.08 100 1010.3
20260508234629 12 187 8.0 11.3 0.00 0.08 0.08 100 1010.3
20260508234125 12 187 11.3 12.9 0.00 0.08 0.08 100 1010.3
20260508233624 12 195 8.0 9.7 0.00 0.08 0.08 99 1010.3
20260508233121 12 203 8.0 9.7 0.00 0.08 0.08 99 1010.3
20260508232618 12 228 8.0 9.7 0.00 0.08 0.08 98 1010.3
20260508232115 12 231 9.7 11.3 0.00 0.08 0.08 98 1010.6
20260508231613 12 226 9.7 11.3 0.00 0.08 0.08 98 1010.6
20260508231109 12 251 8.0 9.7 0.00 0.08 0.08 97 1010.6
20260508230606 12 255 6.4 8.0 0.00 0.05 0.05 96 1010.9
20260508225600 13 309 4.8 6.4 0.00 0.03 0.03 96 1010.6
20260508225057 13 309 4.8 6.4 0.00 0.03 0.03 95 1010.6
20260508224555 13 309 4.8 6.4 0.00 0.00 0.00 93 1010.6
20260508224052 13 309 6.4 8.0 0.00 0.00 0.00 92 1010.6
20260508223549 13 309 8.0 11.3 0.00 0.00 0.00 90 1010.6
20260508223046 13 309 6.4 8.0 0.00 0.00 0.00 88 1010.6
20260508222544 14 309 8.0 9.7 0.00 0.00 0.00 86 1010.3
20260508222041 14 302 6.4 9.7 0.00 0.00 0.00 84 1010.3
20260508221537 14 266 4.8 8.0 0.00 0.00 0.00 83 1010.3
20260508221032 15 294 9.7 14.5 0.00 0.00 0.00 80 1010.3
20260508220530 15 302 9.7 12.9 0.00 0.00 0.00 80 1010.3
20260508220026 15 289 8.0 9.7 0.00 0.00 0.00 78 1010.3
20260508215523 15 264 6.4 9.7 0.00 0.00 0.00 78 1010.3
20260508215020 15 272 9.7 12.9 0.00 0.00 0.00 77 1010.3
20260508214517 15 271 11.3 19.3 0.00 0.00 0.00 77 1010.3
20260508214013 15 274 6.4 11.3 0.00 0.00 0.00 76 1010.3
20260508213511 15 275 8.0 11.3 0.00 0.00 0.00 75 1010.3
20260508213006 15 266 11.3 17.7 0.00 0.00 0.00 76 1010.6
20260508212503 15 247 11.3 20.9 0.00 0.00 0.00 74 1010.6
20260508211959 16 246 16.1 19.3 0.00 0.00 0.00 74 1010.3
20260508211455 15 247 14.5 20.9 0.00 0.00 0.00 74 1010.3
20260508210952 15 255 11.3 16.1 0.00 0.00 0.00 74 1010.3
20260508210448 16 248 12.9 19.3 0.00 0.00 0.00 71 1010.6
20260508205944 16 260 14.5 22.5 0.00 0.00 0.00 69 1010.6
20260508205442 16 232 17.7 29.0 0.00 0.00 0.00 72 1010.3
20260508204938 16 234 20.9 25.7 0.00 0.00 0.00 72 1010.6
20260508204436 16 236 20.9 25.7 0.00 0.00 0.00 73 1010.3
20260508203931 16 230 20.9 27.4 0.00 0.00 0.00 74 1010.6
20260508203427 16 235 20.9 30.6 0.00 0.00 0.00 71 1010.6
20260508202923 16 242 17.7 24.1 0.00 0.00 0.00 68 1010.6
20260508202421 17 249 19.3 27.4 0.00 0.00 0.00 65 1010.6
20260508201918 17 249 20.9 29.0 0.00 0.00 0.00 65 1010.6
20260508201414 17 247 17.7 24.1 0.00 0.00 0.00 66 1010.6
20260508200911 17 238 27.4 37.0 0.00 0.00 0.00 64 1010.6
20260508200408 17 246 20.9 27.4 0.00 0.00 0.00 64 1010.6
20260508195858 17 244 20.9 33.8 0.00 0.00 0.00 63 1010.6
20260508195355 17 235 25.7 35.4 0.00 0.00 0.00 61 1010.6
20260508194851 18 233 30.6 37.0 0.00 0.00 0.00 60 1010.3
20260508194349 18 244 27.4 33.8 0.00 0.00 0.00 62 1010.3
20260508193846 18 221 29.0 33.8 0.00 0.00 0.00 61 1010.3
20260508193342 18 221 27.4 32.2 0.00 0.00 0.00 61 1010.3
20260508192838 18 224 27.4 33.8 0.00 0.00 0.00 60 1010.3
20260508192336 19 227 22.5 30.6 0.00 0.00 0.00 61 1010.3
20260508191833 18 225 29.0 35.4 0.00 0.00 0.00 59 1010.3
20260508191330 18 206 29.0 40.2 0.00 0.00 0.00 59 1010.3
20260508190827 18 216 24.1 30.6 0.00 0.00 0.00 58 1010.3
20260508190323 18 213 25.7 33.8 0.00 0.00 0.00 58 1010.6
20260508185820 19 203 33.8 45.1 0.00 0.00 0.00 58 1010.3
20260508185317 18 213 30.6 35.4 0.00 0.00 0.00 59 1010.6
20260508184814 18 221 30.6 41.8 0.00 0.00 0.00 59 1010.9
20260508184311 18 213 20.9 22.5 0.00 0.00 0.00 60 1010.9
20260508183808 18 217 30.6 35.4 0.00 0.00 0.00 59 1010.9
20260508183304 19 212 24.1 32.2 0.00 0.00 0.00 60 1010.6
20260508182755 18 212 27.4 32.2 0.00 0.00 0.00 59 1010.9
20260508182252 18 219 30.6 37.0 0.00 0.00 0.00 60 1010.9
20260508181748 18 206 24.1 32.2 0.00 0.00 0.00 58 1010.6
20260508181244 19 208 27.4 38.6 0.00 0.00 0.00 59 1010.6
20260508180742 19 216 24.1 30.6 0.00 0.00 0.00 60 1010.6
20260508180238 20 204 24.1 33.8 0.00 0.00 0.00 60 1010.6
20260508175735 19 222 29.0 35.4 0.00 0.00 0.00 60 1010.9
20260508175231 19 226 27.4 35.4 0.00 0.00 0.00 60 1010.9
20260508174729 20 213 29.0 37.0 0.00 0.00 0.00 60 1010.9
20260508174227 19 227 24.1 30.6 0.00 0.00 0.00 59 1010.9
20260508173722 19 217 29.0 37.0 0.00 0.00 0.00 61 1010.9
20260508173219 19 213 25.7 32.2 0.00 0.00 0.00 61 1011.3
20260508172716 18 210 27.4 33.8 0.00 0.00 0.00 61 1011.3
20260508172213 18 217 19.3 27.4 0.00 0.00 0.00 64 1011.6
20260508171709 17 219 16.1 20.9 0.00 0.00 0.00 64 1012.0
20260508171205 18 214 20.9 27.4 0.00 0.00 0.00 63 1012.0
20260508170702 18 220 22.5 25.7 0.00 0.00 0.00 63 1012.0
20260508170200 19 239 19.3 25.7 0.00 0.00 0.00 62 1012.0
20260508165656 18 217 14.5 19.3 0.00 0.00 0.00 62 1012.0
20260508165153 18 228 19.3 22.5 0.00 0.00 0.00 61 1012.0
20260508164650 18 248 16.1 20.9 0.00 0.00 0.00 63 1012.0
20260508164146 18 254 16.1 27.4 0.00 0.00 0.00 62 1012.3
20260508163644 18 242 16.1 22.5 0.00 0.00 0.00 63 1012.3
20260508163142 18 262 9.7 16.1 0.00 0.00 0.00 64 1012.6
20260508162637 17 248 8.0 14.5 0.00 0.00 0.00 63 1013.1
20260508162135 17 265 8.0 14.5 0.00 0.00 0.00 66 1013.1
20260508161632 17 263 9.7 17.7 0.00 0.00 0.00 63 1013.1
20260508161129 17 283 9.7 17.7 0.00 0.00 0.00 64 1013.1
20260508160627 16 238 14.5 19.3 0.00 0.00 0.00 66 1013.4
20260508160124 16 247 14.5 20.9 0.00 0.00 0.00 66 1013.4
20260508155621 16 258 9.7 16.1 0.00 0.00 0.00 65 1013.4
20260508155118 16 252 12.9 19.3 0.00 0.00 0.00 66 1013.4
20260508154615 16 262 9.7 12.9 0.00 0.00 0.00 64 1013.4
20260508154112 16 271 12.9 24.1 0.00 0.00 0.00 65 1013.4
20260508153609 16 278 12.9 22.5 0.00 0.00 0.00 65 1013.4
20260508153105 16 258 14.5 20.9 0.00 0.00 0.00 65 1013.4
20260508152602 16 247 12.9 20.9 0.00 0.00 0.00 67 1013.4
20260508152057 16 248 11.3 16.1 0.00 0.00 0.00 67 1013.4
20260508151554 15 249 11.3 17.7 0.00 0.00 0.00 68 1013.4
20260508151052 15 255 16.1 20.9 0.00 0.00 0.00 68 1013.4
20260508150549 15 233 16.1 22.5 0.00 0.00 0.00 67 1013.4
20260508150044 15 238 14.5 19.3 0.00 0.00 0.00 68 1013.7
20260508145541 15 244 14.5 24.1 0.00 0.00 0.00 69 1013.7
20260508145037 15 242 19.3 27.4 0.00 0.00 0.00 69 1013.7
20260508144535 15 232 22.5 29.0 0.00 0.00 0.00 68 1013.7
20260508144032 15 238 12.9 17.7 0.00 0.00 0.00 70 1013.7
20260508143530 14 242 14.5 17.7 0.00 0.00 0.00 69 1013.7
20260508143026 14 239 16.1 27.4 0.00 0.00 0.00 71 1013.7
20260508142524 13 238 19.3 24.1 0.00 0.00 0.00 70 1013.7
20260508142020 13 246 17.7 25.7 0.00 0.00 0.00 72 1013.7
20260508141516 12 225 19.3 24.1 0.00 0.00 0.00 73 1013.7
20260508141014 12 226 16.1 17.7 0.00 0.00 0.00 75 1014.1
20260508140511 12 239 14.5 17.7 0.00 0.00 0.00 76 1014.1
20260508140008 12 225 12.9 16.1 0.00 0.00 0.00 76 1014.1
20260508135503 11 213 12.9 16.1 0.00 0.00 0.00 77 1014.1
20260508135000 11 208 9.7 11.3 0.00 0.00 0.00 77 1014.1
20260508134456 11 208 11.3 14.5 0.00 0.00 0.00 78 1014.1
20260508133953 11 217 14.5 16.1 0.00 0.00 0.00 77 1014.1
20260508133451 11 213 11.3 14.5 0.00 0.00 0.00 79 1014.1
20260508132947 11 212 14.5 16.1 0.00 0.00 0.00 78 1014.1
20260508132446 11 228 12.9 14.5 0.00 0.00 0.00 79 1014.4
20260508131942 10 222 12.9 14.5 0.00 0.00 0.00 78 1014.1
20260508131437 10 213 11.3 14.5 0.00 0.00 0.00 79 1014.4
20260508130934 10 216 14.5 16.1 0.00 0.00 0.00 81 1014.1
20260508130431 10 216 12.9 16.1 0.00 0.00 0.00 80 1014.1
20260508125927 10 221 12.9 16.1 0.00 0.00 0.00 81 1014.4
20260508125423 10 233 11.3 12.9 0.00 0.00 0.00 82 1014.4
20260508124921 10 233 11.3 12.9 0.00 0.00 0.00 82 1014.4
20260508124419 10 233 11.3 14.5 0.00 0.00 0.00 83 1014.4
20260508123916 10 233 11.3 14.5 0.00 0.00 0.00 82 1014.4
20260508123415 10 238 11.3 14.5 0.00 0.00 0.00 83 1014.4
20260508122911 9 238 12.9 16.1 0.00 0.00 0.00 82 1014.4
20260508122408 9 233 14.5 17.7 0.00 0.00 0.00 82 1014.1
20260508121905 10 237 12.9 16.1 0.00 0.00 0.00 81 1014.1
20260508121403 10 237 11.3 14.5 0.00 0.00 0.00 80 1014.1
20260508120900 10 241 14.5 19.3 0.00 0.00 0.00 80 1014.4
20260508120358 9 238 14.5 17.7 0.00 0.00 0.00 82 1014.4
20260508115855 9 237 14.5 16.1 0.00 0.00 0.00 81 1014.1
20260508115353 9 238 14.5 17.7 0.00 0.00 0.00 81 1014.1
20260508114849 9 237 12.9 17.7 0.00 0.00 0.00 81 1014.1
20260508114346 9 232 17.7 20.9 0.00 0.00 0.00 81 1013.7
20260508113843 9 224 12.9 16.1 0.00 0.00 0.00 81 1013.7
20260508113341 9 231 16.1 20.9 0.00 0.00 0.00 79 1013.7
20260508112837 9 235 17.7 24.1 0.00 0.00 0.00 80 1013.7
20260508112335 9 247 12.9 16.1 0.00 0.00 0.00 80 1013.7
20260508111831 9 247 12.9 16.1 0.00 0.00 0.00 82 1013.7
20260508111328 8 247 9.7 12.9 0.00 0.00 0.00 85 1013.7
20260508110825 8 247 6.4 8.0 0.00 0.00 0.00 86 1013.7
20260508110323 8 247 6.4 6.4 0.00 0.00 0.00 87 1013.4
20260508105823 7 247 3.2 4.8 0.00 0.00 0.00 90 1013.4
20260508105319 7 247 3.2 4.8 0.00 0.00 0.00 90 1013.4
20260508104816 7 247 3.2 4.8 0.00 0.00 0.00 90 1013.4
20260508104313 7 247 0.0 3.2 0.00 0.00 0.00 89 1013.4
20260508103811 7 247 1.6 4.8 0.00 0.00 0.00 87 1013.4
20260508103307 7 247 4.8 6.4 0.00 0.00 0.00 86 1013.4
20260508102805 7 247 6.4 8.0 0.00 0.00 0.00 87 1013.1
20260508102306 7 247 4.8 6.4 0.00 0.00 0.00 86 1013.4
20260508101800 7 247 4.8 6.4 0.00 0.00 0.00 84 1013.1
20260508101257 8 247 8.0 11.3 0.00 0.00 0.00 82 1013.1
20260508100755 8 247 9.7 14.5 0.00 0.00 0.00 82 1013.1
20260508100253 8 247 8.0 9.7 0.00 0.00 0.00 82 1013.4
20260508095748 8 247 8.0 9.7 0.00 0.00 0.00 82 1013.1
20260508095246 8 247 8.0 11.3 0.00 0.00 0.00 81 1013.1
20260508094743 8 247 9.7 12.9 0.00 0.00 0.00 81 1013.1
20260508094240 8 247 11.3 14.5 0.00 0.00 0.00 80 1013.1
20260508093737 8 247 11.3 14.5 0.00 0.00 0.00 79 1013.1
20260508093235 8 246 12.9 16.1 0.00 0.00 0.00 79 1013.1
20260508092731 8 247 9.7 16.1 0.00 0.00 0.00 77 1013.1
20260508092230 8 251 6.4 11.3 0.00 0.00 0.00 77 1013.1
20260508091727 8 244 9.7 14.5 0.00 0.00 0.00 77 1013.1
20260508091224 8 246 11.3 16.1 0.00 0.00 0.00 78 1013.4
20260508090722 8 243 11.3 16.1 0.00 0.00 0.00 79 1013.4
20260508090219 8 238 9.7 12.9 0.00 0.00 0.00 79 1013.4
20260508085715 8 247 12.9 16.1 0.00 0.00 0.00 80 1013.4
20260508085213 8 238 11.3 14.5 0.00 0.00 0.00 81 1013.4
20260508084703 7 212 9.7 12.9 0.00 0.00 0.00 82 1013.4
20260508084201 7 212 9.7 11.3 0.00 0.00 0.00 82 1013.4
20260508083658 7 210 6.4 9.7 0.00 0.00 0.00 83 1013.4
20260508083155 7 210 8.0 9.7 0.00 0.00 0.00 83 1013.4
20260508082655 7 210 8.0 9.7 0.00 0.00 0.00 84 1013.4
20260508082153 7 210 9.7 9.7 0.00 0.00 0.00 83 1013.4
20260508081645 7 210 9.7 9.7 0.00 0.00 0.00 84 1013.4
20260508081142 7 210 9.7 11.3 0.00 0.00 0.00 84 1013.4
20260508080639 7 210 8.0 8.0 0.00 0.00 0.00 86 1013.4
20260508080137 6 210 6.4 8.0 0.00 0.00 0.00 86 1013.4
20260508075633 6 210 6.4 6.4 0.00 0.00 0.00 87 1013.4
20260508075130 7 210 3.2 4.8 0.00 0.00 0.00 86 1013.4
20260508074628 7 210 4.8 6.4 0.00 0.00 0.00 85 1013.4
20260508074124 7 210 6.4 8.0 0.00 0.00 0.00 86 1013.4
20260508073621 6 210 6.4 8.0 0.00 0.00 0.00 87 1013.4
20260508073119 6 210 4.8 6.4 0.00 0.00 0.00 89 1013.4
20260508072614 6 210 4.8 6.4 0.00 0.00 0.00 88 1013.7
20260508072112 7 210 3.2 4.8 0.00 0.00 0.00 86 1013.7
20260508071610 7 210 1.6 6.4 0.00 0.00 0.00 84 1013.7
20260508071108 7 210 3.2 6.4 0.00 0.00 0.00 85 1013.7
20260508070605 7 210 6.4 8.0 0.00 0.00 0.00 85 1013.7
20260508065600 8 210 8.0 9.7 0.00 0.00 0.00 81 1013.7
20260508065058 8 210 8.0 11.3 0.00 0.00 0.00 80 1013.7
20260508064555 7 204 9.7 11.3 0.00 0.00 0.00 82 1013.7
20260508064053 7 204 6.4 8.0 0.00 0.00 0.00 82 1013.7
20260508063550 7 204 6.4 8.0 0.00 0.00 0.00 83 1013.7
20260508063048 7 204 6.4 6.4 0.00 0.00 0.00 83 1013.7
20260508062545 7 204 6.4 8.0 0.00 0.00 0.00 84 1014.1
20260508062042 7 204 6.4 8.0 0.00 0.00 0.00 86 1013.7
20260508061540 7 204 6.4 6.4 0.00 0.00 0.00 87 1013.7
20260508061036 6 204 6.4 6.4 0.00 0.00 0.00 89 1013.7
20260508060533 6 204 1.6 4.8 0.00 0.00 0.00 90 1013.7
20260508060031 6 204 4.8 4.8 0.00 0.00 0.00 89 1013.7
20260508055526 6 204 1.6 4.8 0.00 0.00 0.00 88 1014.1
20260508055024 7 204 0.0 0.0 0.00 0.00 0.00 88 1014.1
20260508054520 7 204 0.0 0.0 0.00 0.00 0.00 86 1014.1
20260508054017 7 204 0.0 0.0 0.00 0.00 0.00 86 1014.1
20260508053514 7 204 0.0 0.0 0.00 0.00 0.00 85 1014.1
20260508053013 8 204 0.0 0.0 0.00 0.00 0.00 83 1014.1
20260508052509 8 204 0.0 0.0 0.00 0.00 0.00 78 1014.1
20260508052006 8 204 1.6 6.4 0.00 0.00 0.00 78 1014.4
20260508051502 9 204 1.6 6.4 0.00 0.00 0.00 77 1014.4
20260508050957 9 204 0.0 0.0 0.00 0.00 0.00 77 1014.4
20260508050454 9 204 0.0 0.0 0.00 0.00 0.00 78 1014.1
20260508045950 9 204 0.0 0.0 0.00 0.00 0.00 79 1014.4
20260508045448 9 204 0.0 0.0 0.00 0.00 0.00 79 1014.1
20260508044945 9 204 0.0 0.0 0.00 0.00 0.00 79 1014.1
20260508044442 9 204 0.0 0.0 0.00 0.00 0.00 79 1014.1
20260508043937 10 204 6.4 8.0 0.00 0.00 0.00 79 1014.1
20260508043435 10 204 11.3 16.1 0.00 0.00 0.00 77 1014.1
20260508042931 10 203 9.7 12.9 0.00 0.00 0.00 77 1014.1
20260508042429 10 203 11.3 14.5 0.00 0.00 0.00 79 1014.1
20260508041926 10 198 11.3 14.5 0.00 0.00 0.00 79 1014.1
20260508041422 10 194 9.7 11.3 0.00 0.00 0.00 79 1014.1
20260508040919 10 194 14.5 17.7 0.00 0.00 0.00 79 1013.7
20260508040416 10 194 14.5 16.1 0.00 0.00 0.00 79 1013.7
20260508035914 10 193 12.9 16.1 0.00 0.00 0.00 80 1014.1
20260508035406 10 193 9.7 11.3 0.00 0.00 0.00 80 1013.7
20260508034902 9 201 11.3 16.1 0.00 0.00 0.00 82 1013.7
20260508034400 9 233 6.4 8.0 0.00 0.00 0.00 83 1014.1
20260508033856 9 233 6.4 6.4 0.00 0.00 0.00 82 1013.7
20260508033354 9 233 6.4 8.0 0.00 0.00 0.00 84 1013.7
20260508032851 8 233 1.6 4.8 0.00 0.00 0.00 88 1013.7
20260508032348 8 233 1.6 4.8 0.00 0.00 0.00 90 1013.7
20260508031845 8 233 0.0 0.0 0.00 0.00 0.00 88 1014.1
20260508031342 8 233 4.8 6.4 0.00 0.00 0.00 87 1013.7
20260508030838 8 233 4.8 6.4 0.00 0.00 0.00 88 1014.1
20260508030335 8 233 4.8 6.4 0.00 0.00 0.00 86 1014.1
20260508025832 9 233 6.4 8.0 0.00 0.00 0.00 84 1014.1
20260508025329 9 233 6.4 9.7 0.00 0.00 0.00 84 1014.1
20260508024826 9 233 6.4 8.0 0.00 0.00 0.00 83 1014.4
20260508024322 9 233 6.4 8.0 0.00 0.00 0.00 83 1014.1
20260508023819 9 233 8.0 9.7 0.00 0.00 0.00 85 1014.1
20260508023316 8 233 6.4 6.4 0.00 0.00 0.00 89 1014.1
20260508022812 8 233 3.2 6.4 0.00 0.00 0.00 90 1014.1
20260508022309 8 258 0.0 0.0 0.00 0.00 0.00 88 1014.1
20260508021806 8 258 0.0 0.0 0.00 0.00 0.00 89 1014.1
20260508021301 8 258 0.0 1.6 0.00 0.00 0.00 89 1014.1
20260508020758 8 258 0.0 3.2 0.00 0.00 0.00 90 1014.1
20260508020256 8 258 0.0 0.0 0.00 0.00 0.00 89 1014.1
20260508015752 9 258 0.0 0.0 0.00 0.00 0.00 84 1014.1
20260508015250 9 258 3.2 4.8 0.00 0.00 0.00 84 1014.1
20260508014746 9 258 3.2 4.8 0.00 0.00 0.00 86 1014.1
20260508014243 9 258 0.0 0.0 0.00 0.00 0.00 87 1014.1
20260508013739 9 258 1.6 3.2 0.00 0.00 0.00 87 1013.7